Regional Weather Roundup
Issued by NWS

Home | Current Version | Previous Version | Graphics & Text | Print | Product List | Glossary Off
Versions: 1 2 3 4 5 6 7 8 9 10 11 12 13 14 15 16 17 18 19 20 21 22 23 24 25 26 27 28 29 30 31 32 33 34 35 36 37 38 39 40 41 42 43 44 45 46 47 48 49 50

000
ASUS45 KBOU 030807
RWRCO

WEATHER ROUNDUP FOR COLORADO
NATIONAL WEATHER SERVICE DENVER/BOULDER CO
200 AM MDT WED SEP 03 2014

NOTE: "FAIR" INDICATES FEW OR NO CLOUDS BELOW 12000 FEET WITH NO
SIGNIFICANT WEATHER AND/OR OBSTRUCTIONS TO VISIBILITY.

COZ001>005-013-030-031-030900-
...NORTHWEST COLORADO...

CITY           SKY/WX    TMP DP  RH WIND       PRES   REMARKS
CRAIG          PTCLDY    52  42  69 CALM      30.02F
HAYDEN         PTCLDY    55  36  47 E16       30.04F
MEEKER         PTCLDY    55  37  50 E8        30.05S
MOUNT WERNER   NOT AVBL
STEAMBOAT SPGS CLEAR     49  39  68 CALM      30.09F
WALDEN         CLEAR     43  32  65 SE7       30.16F
$$

COZ006>008-011-030900-
...WEST CENTRAL VALLEYS...

CITY           SKY/WX    TMP DP  RH WIND       PRES   REMARKS
GRAND JUNCTION CLEAR     69  38  32 SE16      29.93S
MONTROSE       CLEAR     63  36  36 E7        30.05S
EAGLE          PTCLDY    54  37  54 CALM      30.13S
RIFLE          PTCLDY    58  40  51 E5        30.01F
DELTA          CLEAR     65  40  39 E6        30.00F
NUCLA          CLEAR     64  32  29 E10       30.08S
$$

COZ017>023-064>068-030900-
...SOUTHWEST COLORADO...

CITY           SKY/WX    TMP DP  RH WIND       PRES   REMARKS
DURANGO        CLEAR     55  33  43 CALM      30.12F
CORTEZ         CLEAR     52  39  61 CALM      30.08R
PAGOSA SPRINGS CLEAR     50  30  46 CALM      30.21S
TELLURIDE      NOT AVBL
WOLF CREEK PAS CLEAR     50  27  40 SW25G35   30.50F
$$

COZ009-010-012-014-032>034-037-058>063-030900-
...CENTRAL COLORADO...

CITY           SKY/WX    TMP DP  RH WIND       PRES   REMARKS
ASPEN          PTCLDY    51  36  56 SW6       30.18F
BUENA VISTA    CLEAR     53  31  43 W5        30.20S
COPPER MTN     CLEAR     54  30  40 SW14G22   30.48F
BERTHOUD PASS  FAIR      43  43 100 NW21G36   30.50S
COTTONWOOD PAS CLEAR     63  23  22 CALM      30.33S
GUNNISON       CLEAR     46  36  66 CALM      30.24S
KREMMLING      CLEAR     41  32  70 CALM      30.17F
LEADVILLE      CLEAR     45  30  55 E8        30.32F
MONARCH PASS   CLEAR     46  28  49 SW25      30.58F
SALIDA         CLEAR     59  32  35 NW8       30.24S
SUNLIGHT       MOCLDY    54  32  43 CALM      30.40F
WILKERSON PASS NOT AVBL
$$

COZ069>075-030900-
...SAN LUIS VALLEY/SANGRE DE CRISTO MOUNTAINS...

CITY           SKY/WX    TMP DP  RH WIND       PRES   REMARKS
ALAMOSA        CLEAR     45  33  63 CALM      30.19R
LA VETA PASS   NOT AVBL
SAGUACHE       CLEAR     55  34  44 NW15      30.19F
$$

COZ035-036-038>040-030900-
...NORTHERN COLORADO FRONT RANGE...

CITY           SKY/WX    TMP DP  RH WIND       PRES   REMARKS
DENVER INTL AP PTCLDY    66  54  65 S13       29.95F
DMNS CITY PARK   N/A     64  50  61 SW5       29.94F
AURORA         CLEAR     67  54  64 S14       29.98F
FRONT RANGE AP CLEAR     66  55  68 S12       29.96F
ERIE MUNI ARPT CLEAR     56  48  72 CALM      29.93F
BOULDER MUN AP CLEAR     59  43  55 W3        29.94S
CENTENNIAL     CLEAR     65  51  60 S8        29.99F
BROOMFIELD     CLEAR     64  37  36 SW6       29.98S
FORT COLLINS   CLEAR     57  46  67 N3        29.94S
LONGMONT       CLEAR     57  45  64 CALM      29.95S
$$

COZ041-046-047-076>085-087-088-030900-
...PIKES PEAK/PALMER DIVIDE AND SOUTHERN FOOTHILLS...

CITY           SKY/WX    TMP DP  RH WIND       PRES   REMARKS
COLO. SPRINGS  CLEAR     58  52  80 N7        30.06F
A. F. ACADEMY  CLEAR     53  47  83 N9        30.08F
ELLICOTT       NOT AVBL
FALCON         CLEAR     55  52  89 NW6       30.10F
FORT CARSON    CLEAR     59  51  73 NW3       30.02F
LIMON          CLEAR     57  56  96 SE6       30.00F
MONUMENT HILL  CLEAR     54  50  87 SW9       30.10F
TRINIDAD       CLEAR     72  51  47 W15       30.02F
$$

COZ042>045-048>051-090-091-030900-
...NORTHEAST COLORADO...

CITY           SKY/WX    TMP DP  RH WIND       PRES   REMARKS
GREELEY ARPT   CLEAR     55  46  71 NW6       29.92S
AKRON          PTCLDY    70  60  70 S16G26    29.92F
BURLINGTON     CLEAR     64  62  93 S9        29.94F
WRAY             N/A     69  63  80 S10G18    29.89S
STERLING       PTCLDY    63  59  88 SW6       29.86F
HOLYOKE        CLEAR     64  61  88 S5        29.88F
FORT MORGAN    PTCLDY    64  55  73 CALM      29.91F
$$

COZ086-089-092>099-030900-
...SOUTHEAST COLORADO...

CITY           SKY/WX    TMP DP  RH WIND       PRES   REMARKS
PUEBLO         CLEAR     65  54  67 W8        29.94R
LA JUNTA       PTCLDY    68  61  78 E7        29.90S
LAMAR          CLEAR     66  63  90 E6        29.89F
SPRINGFIELD      N/A     65  64  97 S9        29.95F
$$


USA.gov is the U.S. government's official web portal to all federal, state and local government web resources and services.